Terug naar catalogus

NOAA 16 DEB

ActiefPO
NORAD 41236·DEBRIS·🇺🇸 United States

Gelanceerd Sep 21, 2000 vanaf Vandenberg Space Force Base

Loading…

Volgende Passages (komende 24 uur)

TLE

VersSource: Space-Track

Epoch: Sep 14, 2026, 04:50 UTC

1 41236U 00055ER  26257.20161343  .00004171  00000-0  10415-2 0  9994
2 41236  99.0441 160.4004 0028064 201.1408 158.8627 14.51914497560650

Volg NOAA 16 DEB in realtime met AllMySat

Download on the App Store